Location: Harwich
(41.7160°N, 69.9939°W)
Time: 00:21:41
(UTC+01:00)

A-11 Canister half - Pass Details

Date: 07 December 2023
Orbit: 1526 x 1682 km, 47.3° (Epoch: 01 March)

Event Time Altitude Azimuth Distance (km) Brightness Sun altitude
Rises 04:48:26 0° 291° (WNW) 4,928 11.9 -68.9°
Enters shadow 04:49:25 - 292° (WNW) 4,621 11.7 -69.0°
Reaches altitude 10° 04:51:38 10° 293° (WNW) 3,929 - -69.1°
Maximum altitude 05:01:46 79° 20° (NNE) 1,670 - -69.9°
Drops below altitude 10° 05:11:34 10° 108° (ESE) 3,812 - -70.4°
Sets 05:14:37 0° 109° (ESE) 4,775 - -70.5°
